Stations météo

Publicité
Agen, France (7524): Température de l'air & dewpoint: 15.10.2017 10:00:00 - 21.10.2017 10:00:00 (CEST)Agen, France (7524): Température de l'air 5cm: 15.10.2017 10:00:00 - 21.10.2017 10:00:00 (CEST)Agen, France (7524): Température de l'air -20cm & Température de l'air -100cm: 15.10.2017 10:00:00 - 21.10.2017 10:00:00 (CEST)Agen, France (7524): Vitesse du vent & gusts: 15.10.2017 10:00:00 - 21.10.2017 10:00:00 (CEST)Agen, France (7524): Direction du vent: 15.10.2017 10:00:00 - 21.10.2017 10:00:00 (CEST)Agen, France (7524): reduced air pressure: 15.10.2017 10:00:00 - 21.10.2017 10:00:00 (CEST)Agen, France (7524): visibility: 15.10.2017 10:00:00 - 21.10.2017 10:00:00 (CEST)Agen, France (7524): Ensoleillement: 15.10.2017 10:00:00 - 21.10.2017 10:00:00 (CEST)Agen, France (7524): Quantités de précipitations: 15.10.2017 10:00:00 - 21.10.2017 10:00:00 (CEST)
Date & Time tt [°C] td [°C] tt 5cm [°C] tt -20cm [°C] tt -100cm [°C] ff [km/h] ff [knt] fx [km/h] fx [knt] dd ppp [hPa] vv [km] sd [min] rr [mm]
21.10.2017 10:00:00 16,5 13,2 14,2 16,0 16,8 5 3 13 7 - 1021,4 10 0 0,0
21.10.2017 09:00:00 15,6 12,9 14,0 16,0 16,8 8 4 19 11 W 1020,5 10 0 0,0
21.10.2017 08:00:00 15,2 14,4 13,8 16,0 16,8 5 3 13 7 - 1019,6 10 0 0,0
21.10.2017 07:00:00 14,1 13,3 13,8 16,1 16,8 8 4 13 7 ESE 1018,7 5 0 0,0
21.10.2017 06:00:00 14,0 13,4 13,6 16,1 16,8 10 6 15 8 E 1018,2 4,0 0 0,0
21.10.2017 05:00:00 13,6 13,0 13,1 16,1 16,8 9 5 13 7 E 1017,9 5 0 0,0
21.10.2017 04:00:00 13,3 12,7 10,4 16,2 16,8 7 4 18 10 E 1017,9 8 0 0,2
21.10.2017 03:00:00 12,4 11,5 10,5 16,2 16,8 13 7 19 10 ESE 1017,8 9 0 0,0
21.10.2017 02:00:00 13,1 12,2 10,5 16,3 16,8 16 9 21 12 ESE 1017,6 10 0 0,0
21.10.2017 01:00:00 12,9 12,1 5,8 16,3 16,8 13 7 16 9 ESE 1017,9 10 0 0,0
21.10.2017 00:00:00 11,0 10,2 5,7 16,4 16,8 8 4 11 6 ESE 1018,1 5 0 0,0
20.10.2017 23:00:00 11,0 9,9 6,4 16,4 16,8 8 4 9 5 ESE 1018,1 10 0 0,0
20.10.2017 22:00:00 13,0 11,9 6,5 16,5 16,8 0 0 5 3 N 1018,2 13 0 0,0
20.10.2017 21:00:00 13,7 11,9 7,6 16,5 16,8 4 2 7 4 ESE 1017,8 10 0 0,0
20.10.2017 20:00:00 14,6 12,3 8,8 16,4 16,8 2 1 8 4 SE 1017,9 43 0 0,0
20.10.2017 19:00:00 17,9 12,3 12,9 16,4 16,8 5 3 8 4 SE 1017,4 60 49 0,0
20.10.2017 18:00:00 20,3 12,0 19,2 16,3 16,8 8 4 13 7 S 1017,6 10 53 0,0
20.10.2017 17:00:00 19,9 14,0 20,1 16,3 16,8 6 4 12 6 E 1017,7 55 16 0,0
20.10.2017 16:00:00 19,9 13,6 23,8 16,2 16,8 9 5 12 6 E 1017,6 10 14 0,0
20.10.2017 15:00:00 19,0 13,2 25,7 16,2 16,8 5 3 12 7 E 1018,0 10 9 0,0
20.10.2017 14:00:00 17,6 13,3 21,2 16,1 16,8 8 4 13 7 ESE 1018,3 10 3 0,0
20.10.2017 13:00:00 15,9 13,2 18,5 16,2 16,9 9 5 16 9 E 1018,6 10 0 0,0
20.10.2017 12:00:00 14,4 13,4 15,3 16,2 16,8 11 6 17 9 ESE 1018,9 10 2 0,0
20.10.2017 11:00:00 12,9 12,3 13,6 16,2 16,8 10 6 15 8 ESE 1018,3 6 0 0,0
20.10.2017 10:00:00 12,2 11,7 12,0 16,3 16,8 8 4 11 6 ESE 1017,9 4,7 0 0,0
20.10.2017 09:00:00 11,6 11,1 11,4 16,3 16,8 4 2 11 6 E 1017,2 3,2 0 0,0
20.10.2017 08:00:00 11,2 10,7 10,5 16,3 16,8 7 4 11 6 ESE 1016,4 0,2 0 0,0
20.10.2017 07:00:00 10,9 10,3 10,3 16,4 16,8 5 3 11 6 ESE 1016,3 0,4 0 0,2
20.10.2017 06:00:00 11,3 10,7 6,2 16,4 16,8 4 2 10 5 ESE 1015,9 0,1 0 0,0
20.10.2017 05:00:00 11,5 10,9 7,7 16,5 16,8 4 2 9 5 E 1015,6 7 0 0,0
20.10.2017 04:00:00 11,3 10,5 8,1 16,5 16,8 5 3 9 5 ESE 1015,2 4,7 0 0,0
20.10.2017 03:00:00 11,9 11,3 8,6 16,6 16,8 5 3 10 5 - 1014,8 8 0 0,0
20.10.2017 02:00:00 11,7 10,9 8,2 16,7 16,8 8 4 12 7 ESE 1014,3 9 0 0,0
20.10.2017 01:00:00 11,6 10,8 8,5 16,7 16,8 9 5 12 7 E 1013,9 10 0 0,2
20.10.2017 00:00:00 12,3 11,4 7,3 16,8 16,8 5 3 8 5 E 1013,7 15 0 0,0
19.10.2017 23:00:00 13,0 11,7 8,5 16,8 16,8 0 0 5 3 N 1013,5 23 0 0,0
19.10.2017 22:00:00 13,0 11,7 8,6 16,8 16,8 4 2 10 5 ESE 1013,2 30 0 0,0
19.10.2017 21:00:00 13,1 11,8 8,1 16,9 16,8 9 5 11 6 SE 1012,4 10 0 0,0
19.10.2017 20:00:00 14,7 12,2 8,7 16,8 16,8 2 1 4 2 S 1012,3 39 0 0,0
19.10.2017 19:00:00 17,2 12,9 12,5 16,8 16,8 3 2 12 6 SE 1012,2 52 11 0,0
19.10.2017 18:00:00 19,6 12,6 19,5 16,8 16,8 5 3 12 7 - 1011,1 10 60 0,0
19.10.2017 17:00:00 19,5 13,0 21,6 16,7 16,8 5 3 16 9 ENE 1010,9 42 34 0,0
19.10.2017 16:00:00 19,2 13,8 21,7 16,7 16,8 8 4 16 8 SE 1011,2 10 10 0,0
19.10.2017 15:00:00 18,2 12,6 22,6 16,7 16,8 0 0 10 5 N 1011,3 10 2 0,0
19.10.2017 14:00:00 17,5 13,6 20,1 16,7 16,8 5 3 13 7 - 1011,5 10 0 0,0
19.10.2017 13:00:00 16,6 13,7 17,5 16,7 16,8 5 3 12 6 - 1011,9 10 1 0,0
19.10.2017 12:00:00 15,2 13,4 15,8 16,7 16,8 5 3 14 7 - 1012,3 10 0 0,0
19.10.2017 11:00:00 14,4 12,9 14,6 16,7 16,8 11 6 15 8 ESE 1012,0 9 0 0,0
19.10.2017 10:00:00 13,9 12,5 13,7 16,8 16,8 0 0 8 4 N 1011,3 10 0 0,0
19.10.2017 09:00:00 13,5 12,2 12,7 16,8 16,8 5 3 6 4 ESE 1011,2 10 0 0,0
19.10.2017 08:00:00 13,1 11,8 12,4 16,8 16,8 4 2 16 9 - 1011,0 10 0 0,0
19.10.2017 07:00:00 13,3 12,2 12,8 16,9 16,8 7 4 16 9 W 1010,8 10 0 0,0
19.10.2017 06:00:00 13,8 12,7 9,9 16,9 16,8 7 4 13 7 W 1010,5 19 0 0,0
19.10.2017 05:00:00 14,1 12,5 11,4 16,9 16,8 4 2 9 5 - 1010,0 10 0 0,0
19.10.2017 04:00:00 14,6 12,8 13,2 17,0 16,8 2 1 16 9 SW 1010,4 49 0 0,0
19.10.2017 03:00:00 15,0 13,2 14,3 17,0 16,8 10 6 20 11 WSW 1010,4 49 0 0,0
19.10.2017 02:00:00 15,2 13,7 14,6 17,0 16,8 11 6 19 11 WSW 1009,9 10 0 0,0
19.10.2017 01:00:00 15,9 14,4 15,2 17,0 16,8 9 5 11 6 WSW 1009,5 10 0 0,0
19.10.2017 00:00:00 15,9 14,4 13,9 17,0 16,8 0 0 9 5 N 1009,4 10 0 0,0
18.10.2017 23:00:00 15,7 14,4 13,6 17,0 16,8 5 3 8 4 W 1008,9 10 0 0,0
18.10.2017 22:00:00 16,2 14,4 15,5 17,0 16,8 5 3 19 10 NNW 1009,0 20 0 0,2
18.10.2017 21:00:00 17,2 14,3 15,8 17,0 16,8 12 6 24 13 SW 1009,5 17 0 0,6
18.10.2017 20:00:00 17,9 15,3 15,5 17,0 16,8 3 1 12 6 S 1008,6 20 0 0,0
18.10.2017 19:00:00 18,4 15,6 17,1 16,9 16,8 8 4 13 7 E 1007,7 10 0 0,0
18.10.2017 18:00:00 19,7 15,6 19,2 16,9 16,8 2 1 28 15 WSW 1007,6 10 0 0,0
18.10.2017 17:00:00 20,4 15,2 19,0 16,8 16,8 21 11 50 27 SW 1009,0 10 0 0,2
18.10.2017 16:00:00 24,2 14,3 26,2 16,7 16,8 0 0 16 9 N 1008,1 10 0 0,0
18.10.2017 15:00:00 24,0 14,1 27,7 16,6 16,8 11 6 31 17 ESE 1008,4 10 21 0,0
18.10.2017 14:00:00 25,1 14,2 25,6 16,6 16,7 16 9 31 17 ESE 1009,0 10 39 0,0
18.10.2017 13:00:00 22,9 14,2 22,9 16,6 16,7 18 10 31 17 SE 1010,3 10 53 0,0
18.10.2017 12:00:00 19,8 14,2 21,2 16,6 16,7 15 8 22 12 ESE 1010,9 10 12 0,0
18.10.2017 11:00:00 18,1 14,0 17,1 16,6 16,8 10 5 17 9 ESE 1012,3 20 12 0,0
18.10.2017 10:00:00 16,3 13,6 15,0 16,6 16,7 8 4 15 8 ESE 1012,8 10 0 0,0
18.10.2017 09:00:00 15,8 13,6 12,4 16,7 16,7 9 5 16 9 ESE 1012,9 10 0 0,0
18.10.2017 08:00:00 14,8 13,0 12,6 16,7 16,7 9 5 12 6 ESE 1012,5 10 0 0,0
18.10.2017 07:00:00 15,3 13,3 13,9 16,7 16,7 7 4 11 6 ESE 1013,1 15 0 0,0
18.10.2017 06:00:00 15,2 13,2 13,9 16,8 16,7 8 4 14 7 ESE 1013,6 10 0 0,0
18.10.2017 05:00:00 15,3 13,0 13,8 16,8 16,7 9 5 19 11 ESE 1013,8 10 0 0,0
18.10.2017 04:00:00 15,3 13,0 13,5 16,8 16,8 15 8 21 12 ESE 1014,2 18 0 0,0
18.10.2017 03:00:00 15,3 13,1 13,0 16,9 16,7 14 8 19 10 ESE 1014,7 17 0 0,0
18.10.2017 02:00:00 15,4 12,9 13,7 16,9 16,7 8 4 23 12 ESE 1015,2 10 0 0,0
18.10.2017 01:00:00 15,3 13,0 10,4 16,9 16,8 18 10 23 13 E 1015,3 10 0 0,0
18.10.2017 00:00:00 15,3 12,4 12,3 16,9 16,7 11 6 23 12 ESE 1015,9 10 0 0,0
17.10.2017 23:00:00 16,3 12,8 13,9 16,9 16,7 16 9 24 13 ESE 1016,0 10 0 0,0
17.10.2017 22:00:00 17,3 13,2 14,6 16,9 16,7 15 8 30 16 ESE 1015,9 10 0 0,0
17.10.2017 21:00:00 19,6 13,5 16,6 16,9 16,7 16 9 31 17 SE 1015,8 10 0 0,0
17.10.2017 20:00:00 20,7 13,2 17,3 16,9 16,7 18 10 36 19 SE 1015,9 10 0 0,0
17.10.2017 19:00:00 21,8 12,6 18,7 16,8 16,7 21 11 40 22 SE 1015,5 10 14 0,0
17.10.2017 18:00:00 23,7 12,7 22,4 16,7 16,7 24 13 38 21 SE 1015,5 10 60 0,0
17.10.2017 17:00:00 24,7 12,9 24,8 16,6 16,7 24 13 36 19 ESE 1015,8 10 60 0,0
17.10.2017 16:00:00 25,6 12,8 32,5 16,5 16,7 22 12 34 18 SE 1016,1 10 60 0,0
17.10.2017 15:00:00 25,6 13,8 34,5 16,4 16,7 22 12 36 19 ESE 1016,7 10 60 0,0
17.10.2017 14:00:00 24,5 13,7 33,0 16,5 16,7 22 12 33 18 SE 1017,7 10 60 0,0
17.10.2017 13:00:00 23,1 15,2 28,7 16,5 16,7 16 9 27 15 ESE 1018,6 10 60 0,0
17.10.2017 12:00:00 19,9 14,0 23,1 16,5 16,7 18 10 31 17 E 1019,2 10 60 0,0
17.10.2017 11:00:00 18,0 13,5 15,5 16,5 16,7 16 9 25 13 ESE 1019,8 10 60 0,0
17.10.2017 10:00:00 15,3 12,6 12,3 16,6 16,7 21 11 31 17 ESE 1020,3 10 60 0,0
17.10.2017 09:00:00 13,4 12,0 10,2 16,6 16,7 15 8 20 11 ESE 1020,5 10 11 0,0
17.10.2017 08:00:00 12,8 11,4 10,9 16,7 16,7 15 8 26 14 ESE 1020,4 10 0 0,0
17.10.2017 07:00:00 13,8 12,0 11,4 16,7 16,7 18 10 30 16 ESE 1020,6 10 0 0,0
17.10.2017 06:00:00 14,8 12,5 12,7 16,8 16,7 18 10 28 15 ESE 1021,0 18 0 0,0
17.10.2017 05:00:00 15,3 13,8 13,0 16,8 16,7 11 6 16 9 ESE 1021,6 10 0 0,0
17.10.2017 04:00:00 14,3 13,0 8,2 16,9 16,7 8 4 11 6 ESE 1022,2 10 0 0,0
17.10.2017 03:00:00 13,4 12,0 9,0 16,9 16,7 8 5 13 7 E 1022,9 11 0 0,0
17.10.2017 02:00:00 14,3 12,7 9,7 17,0 16,7 8 4 16 8 ESE 1023,2 10 0 0,0
17.10.2017 01:00:00 14,7 12,9 9,5 17,0 16,7 9 5 13 7 ESE 1023,6 10 0 0,0
17.10.2017 00:00:00 15,6 13,1 9,1 17,0 16,7 5 3 12 6 ESE 1023,9 23 0 0,0
16.10.2017 23:00:00 17,1 13,2 11,2 17,0 16,7 5 3 18 10 E 1023,7 10 0 0,0
16.10.2017 22:00:00 18,3 13,6 11,3 17,1 16,7 11 6 19 11 ESE 1023,2 10 0 0,0
16.10.2017 21:00:00 19,6 13,5 11,8 17,0 16,7 4 2 19 10 ENE 1023,0 40 0 0,0
16.10.2017 20:00:00 20,4 13,1 14,9 16,9 16,7 11 6 20 11 ESE 1022,6 49 0 0,0
16.10.2017 19:00:00 23,3 13,7 19,1 16,8 16,7 12 7 24 13 SE 1021,9 44 46 0,0
16.10.2017 18:00:00 25,8 14,0 24,1 16,7 16,6 16 9 24 13 ESE 1022,0 10 60 0,0
16.10.2017 17:00:00 27,2 14,2 27,4 16,6 16,7 13 7 27 15 E 1021,9 10 60 0,0
16.10.2017 16:00:00 27,6 14,6 34,8 16,5 16,6 16 8 32 17 ESE 1021,7 35 60 0,0
16.10.2017 15:00:00 27,4 14,8 36,3 16,4 16,6 15 8 34 18 SE 1021,9 10 60 0,0
16.10.2017 14:00:00 26,6 15,0 33,1 16,4 16,6 21 11 32 18 SE 1022,3 10 60 0,0
16.10.2017 13:00:00 25,0 15,3 29,3 16,4 16,6 21 11 30 16 ESE 1022,9 10 60 0,0
16.10.2017 12:00:00 21,9 16,0 21,6 16,4 16,7 17 9 24 13 ESE 1023,1 13 60 0,0
16.10.2017 11:00:00 19,0 15,7 16,8 16,4 16,7 16 9 26 14 ESE 1023,3 10 60 0,0
16.10.2017 10:00:00 16,4 14,4 13,7 16,4 16,6 18 10 24 13 ESE 1023,0 10 60 0,0
16.10.2017 09:00:00 14,7 13,4 12,3 16,5 16,7 11 6 18 10 ESE 1022,7 10 4 0,0
16.10.2017 08:00:00 14,4 13,3 11,9 16,5 16,6 13 7 19 10 ESE 1022,2 10 0 0,0
16.10.2017 07:00:00 14,3 13,2 12,3 16,5 16,6 13 7 21 11 ESE 1021,8 8 0 0,2
16.10.2017 06:00:00 14,5 13,5 12,2 16,6 16,7 13 7 18 10 ESE 1021,6 8 0 0,0
16.10.2017 05:00:00 14,9 13,9 11,8 16,6 16,7 13 7 19 10 ESE 1021,9 8 0 0,0
16.10.2017 04:00:00 15,2 14,1 11,9 16,6 16,7 8 4 22 12 ESE 1022,3 10 0 0,0
16.10.2017 03:00:00 15,6 14,5 13,8 16,6 16,6 17 9 24 13 ESE 1022,5 9 0 0,0
16.10.2017 02:00:00 16,0 14,7 13,8 16,7 16,7 18 10 24 13 ESE 1022,7 10 0 0,0
16.10.2017 01:00:00 16,1 14,6 14,0 16,7 16,7 16 9 21 11 ESE 1023,0 14 0 0,0
16.10.2017 00:00:00 16,6 14,8 13,5 16,7 16,7 15 8 19 10 ESE 1023,3 10 0 0,0
15.10.2017 23:00:00 17,1 14,4 14,2 16,6 16,7 13 7 23 12 ESE 1023,4 10 0 0,0
15.10.2017 22:00:00 18,2 14,3 14,7 16,6 16,7 15 8 19 10 ESE 1023,3 10 0 0,0
15.10.2017 21:00:00 19,6 14,4 15,7 16,6 16,6 13 7 26 14 ESE 1022,9 10 0 0,0
15.10.2017 20:00:00 22,7 14,3 19,2 16,5 16,7 18 10 30 16 SE 1022,7 59 0 0,0
15.10.2017 19:00:00 24,2 14,9 20,8 16,4 16,6 18 10 28 15 SSE 1022,1 10 36 0,0
15.10.2017 18:00:00 26,2 14,6 24,5 16,3 16,7 18 10 30 16 ESE 1021,9 10 60 0,0
15.10.2017 17:00:00 27,3 14,7 27,3 16,2 16,7 16 9 31 17 SE 1021,8 10 60 0,0
15.10.2017 16:00:00 27,5 14,5 34,5 16,1 16,7 22 12 31 17 ESE 1022,2 10 60 0,0
15.10.2017 15:00:00 27,3 15,3 36,4 16,0 16,7 19 10 32 17 SE 1022,5 23 60 0,0
15.10.2017 14:00:00 26,6 16,2 34,7 15,9 16,7 18 10 32 17 SE 1023,1 10 60 0,0
15.10.2017 13:00:00 24,9 16,6 29,6 15,8 16,6 16 9 26 14 ESE 1023,9 10 60 0,0
15.10.2017 12:00:00 21,7 16,4 23,4 15,8 16,6 17 9 25 14 ESE 1024,3 14 60 0,0
15.10.2017 11:00:00 18,8 15,7 16,8 15,9 16,7 16 9 26 14 ESE 1024,6 10 60 0,0
15.10.2017 10:00:00 16,1 14,1 13,3 15,9 16,7 18 10 27 15 ESE 1024,7 10 60 0,0

tt = Température de l'air
td = dewpoint
tt 5cm = Température de l'air 5cm
tt -20cm = Température de l'air -20cm
tt -100cm = Température de l'air -100cm
ff = Vitesse du vent
fx = gusts
dd = Direction du vent
ppp = reduced air pressure
vv = visibility
sd = Ensoleillement
rr = Quantités de précipitations

stations d'obs. à proximité